Location: Nairn
(57.5833°N, 3.8667°W)
Time: 01:55:27
(UTC+00:00)

Tiros 1 despin weight - Pass Details

Date: 29 November 2020
Orbit: 594 x 641 km, 48.2° (Epoch: 22 January)

Event Time Altitude Azimuth Distance (km) Brightness Sun altitude
Rises 17:54:14 0° 265° (W) 2,944 ? -16.9°
Reaches altitude 10° 17:58:54 10° 223° (SW) 2,023 ? -17.5°
Maximum altitude 17:59:29 10° 215° (SW) 2,007 ? -17.5°
Drops below altitude 10° 18:00:04 10° 208° (SSW) 2,020 ? -17.6°
Sets 18:04:42 0° 166° (SSE) 2,911 ? -18.2°
